星链-31499 (STARLINK-31499 )

导读

STARLINK-31499是美国太空探索技术公司(SpaceX)研制的Starlink互联网卫星,属于星链卫星互联网项目组网卫星,于2024年3月11日发射。该卫星旨在为全球范围内用户提供高速低延迟互联网接入服务,尤其覆盖偏远地区,进一步推进星链星座的组网部署进程,增强全球卫星互联网服务能力。

基本信息
目录编号:
59217
目录名称:
STARLINK-31499
国际标识:
2024-046S
轨道中心:
EARTH
卫星名称:
星链-31499
卫星全名:
星链-31499 (STARLINK-31499 )
卫星状态:
在轨 (已飞行829 天)
发射日期:
2024-03-11 UTC
国别 :
美国 (US)
星等 :
--
轨道信息
数据来源 国际轨道数据 AOE轨道数据
星历时间 2026-06-18T05:00:32+0800
8小时前
查看轨道信息
2026-06-13T01:00:00+0800
5天前
查看轨道信息
半长轴 6840.87km 6840.859km
偏心率 0.000139 0.0001436
轨道倾角 53.160° 53.163°
近地点辐角 71.840° 108.612°
升交点赤经 48.200° 72.360°
平近点角 288.275° 133.866°
近地点 461.782km 461.739km
远地点 463.684km 463.705km
周期 93.848分钟 93.848分钟
每日圈数 15.343902 15.34394
详细信息
固有亮度:
5
最大亮度:
0.3
卫星平台:
Starlink v2.0 mini
覆盖范围:
全球
运营商:
太空探索技术公司
运营商所在国:
美国
制造商(研发单位):
太空探索技术公司
制造商所在国:
美国
使用方式:
暂无
卫星简介
星链(Starlink)计划是由太空探索技术公司(SpaceX)提出的一个巨型低轨卫星互联网星座项目,计划在2019年至2024年间在太空搭建由约1.2万颗卫星组成的“星链”网络,其中1584颗将部署在地球上空550千米处的近地轨道,并从2020年开始工作。该卫星仍在工作。
2D轨道图
3D轨道图
轨道高度分析图
轨道倾角分析图
轨道综合分析图
查看轨道综合分析图